Time,TemperatureF,DewpointF,PressureIn,WindDirection,WindDirectionDegrees,WindSpeedMPH,WindSpeedGustMPH,Humidity,HourlyPrecipIn,Conditions,Clouds,dailyrainin,SoftwareType,DateUTC
2013-09-11 00:00:00,75.3,72.5,29.96,North,360,2.0,6.0,91,0.00,,,0.00,VWS V14.01,2013-09-11 04:00:00,
2013-09-11 00:01:00,75.3,72.5,29.96,East,89,3.0,6.0,91,0.00,,,0.00,VWS V14.01,2013-09-11 04:01:00,
2013-09-11 00:06:00,75.3,72.5,29.96,ENE,76,4.0,6.0,91,0.00,,,0.00,VWS V14.01,2013-09-11 04:06:00,
2013-09-11 00:14:00,75.3,72.5,29.96,ENE,72,0.0,6.0,91,0.00,,,0.00,VWS V14.01,2013-09-11 04:14:00,
2013-09-11 00:19:00,75.3,72.5,29.95,ENE,72,3.0,9.0,91,0.00,,,0.00,VWS V14.01,2013-09-11 04:19:00,
2013-09-11 00:24:00,75.1,72.3,29.95,ENE,71,0.0,9.0,91,0.00,,,0.00,VWS V14.01,2013-09-11 04:24:00,
2013-09-11 00:29:00,75.1,72.3,29.95,ENE,70,0.0,9.0,91,0.00,,,0.00,VWS V14.01,2013-09-11 04:29:00,
2013-09-11 00:30:00,75.1,72.3,29.95,ENE,69,0.0,9.0,91,0.00,,,0.00,VWS V14.01,2013-09-11 04:30:00,
2013-09-11 00:34:00,75.1,72.3,29.95,ENE,69,0.0,4.0,91,0.00,,,0.00,VWS V14.01,2013-09-11 04:34:00,
2013-09-11 00:39:00,75.1,72.3,29.95,North,360,4.0,6.0,91,0.00,,,0.00,VWS V14.01,2013-09-11 04:39:00,
2013-09-11 00:44:00,74.9,72.1,29.95,ENE,77,0.0,6.0,91,0.00,,,0.00,VWS V14.01,2013-09-11 04:44:00,
2013-09-11 00:49:00,74.9,72.1,29.94,ENE,77,0.0,6.0,91,0.00,,,0.00,VWS V14.01,2013-09-11 04:49:00,
2013-09-11 00:54:00,74.9,72.1,29.94,ENE,77,0.0,6.0,91,0.00,,,0.00,VWS V14.01,2013-09-11 04:54:00,
2013-09-11 00:59:00,74.9,72.1,29.94,ENE,77,0.0,6.0,91,0.00,,,0.00,VWS V14.01,2013-09-11 04:59:00,
2013-09-11 01:00:00,74.9,72.1,29.94,ENE,77,1.0,6.0,91,0.00,,,0.00,VWS V14.01,2013-09-11 05:00:00,
2013-09-11 01:04:00,74.9,72.1,29.94,ENE,75,0.0,1.0,91,0.00,,,0.00,VWS V14.01,2013-09-11 05:04:00,
2013-09-11 01:27:00,74.6,71.8,29.93,North,360,3.0,5.0,91,0.00,,,0.00,VWS V14.01,2013-09-11 05:27:00,
2013-09-11 01:30:00,74.6,71.8,29.93,ENE,74,0.0,5.0,91,0.00,,,0.00,VWS V14.01,2013-09-11 05:30:00,
2013-09-11 01:32:00,74.6,71.8,29.93,ENE,74,0.0,1.0,91,0.00,,,0.00,VWS V14.01,2013-09-11 05:32:00,
2013-09-11 01:37:00,74.6,71.8,29.93,ENE,72,1.0,5.0,91,0.00,,,0.00,VWS V14.01,2013-09-11 05:37:00,
2013-09-11 01:42:00,74.6,71.8,29.93,ENE,72,0.0,5.0,91,0.00,,,0.00,VWS V14.01,2013-09-11 05:42:00,
2013-09-11 01:47:00,74.6,71.8,29.92,ENE,71,0.0,5.0,91,0.00,,,0.00,VWS V14.01,2013-09-11 05:47:00,
2013-09-11 01:52:00,74.6,71.8,29.92,ENE,72,3.0,5.0,91,0.00,,,0.00,VWS V14.01,2013-09-11 05:52:00,
2013-09-11 01:57:00,74.4,71.6,29.92,ENE,73,0.0,5.0,91,0.00,,,0.00,VWS V14.01,2013-09-11 05:57:00,
2013-09-11 02:00:00,74.4,71.6,29.92,ENE,72,0.0,5.0,91,0.00,,,0.00,VWS V14.01,2013-09-11 06:00:00,
2013-09-11 02:02:00,74.2,71.4,29.92,ENE,72,0.0,1.0,91,0.00,,,0.00,VWS V14.01,2013-09-11 06:02:00,
2013-09-11 02:07:00,74.2,71.4,29.92,ENE,72,0.0,3.0,91,0.00,,,0.00,VWS V14.01,2013-09-11 06:07:00,
2013-09-11 02:12:00,74.2,71.4,29.92,ENE,73,0.0,3.0,91,0.00,,,0.00,VWS V14.01,2013-09-11 06:12:00,
2013-09-11 02:17:00,74.0,71.5,29.92,ENE,72,0.0,3.0,92,0.00,,,0.00,VWS V14.01,2013-09-11 06:17:00,
2013-09-11 02:22:00,74.0,71.5,29.92,ENE,72,0.0,3.0,92,0.00,,,0.00,VWS V14.01,2013-09-11 06:22:00,
2013-09-11 02:27:00,73.9,71.4,29.92,ENE,74,0.0,3.0,92,0.00,,,0.00,VWS V14.01,2013-09-11 06:27:00,
2013-09-11 02:30:00,73.9,71.4,29.91,ENE,74,0.0,3.0,92,0.00,,,0.00,VWS V14.01,2013-09-11 06:30:00,
2013-09-11 02:32:00,73.9,71.4,29.91,ENE,72,0.0,0.0,92,0.00,,,0.00,VWS V14.01,2013-09-11 06:32:00,
2013-09-11 02:37:00,73.7,71.2,29.91,ENE,74,0.0,1.0,92,0.00,,,0.00,VWS V14.01,2013-09-11 06:37:00,
2013-09-11 02:42:00,73.5,71.0,29.91,ENE,74,0.0,1.0,92,0.00,,,0.00,VWS V14.01,2013-09-11 06:42:00,
2013-09-11 02:47:00,73.5,71.0,29.91,ENE,74,0.0,1.0,92,0.00,,,0.00,VWS V14.01,2013-09-11 06:47:00,
2013-09-11 02:52:00,73.5,71.4,29.91,ENE,72,0.0,1.0,93,0.00,,,0.00,VWS V14.01,2013-09-11 06:52:00,
2013-09-11 02:57:00,73.3,71.2,29.91,ENE,72,0.0,1.0,93,0.00,,,0.00,VWS V14.01,2013-09-11 06:57:00,
2013-09-11 03:00:00,73.3,71.2,29.90,ENE,73,0.0,1.0,93,0.00,,,0.00,VWS V14.01,2013-09-11 07:00:00,
2013-09-11 03:02:00,73.3,71.2,29.90,ENE,72,0.0,0.0,93,0.00,,,0.00,VWS V14.01,2013-09-11 07:02:00,
2013-09-11 03:07:00,73.2,71.1,29.90,ENE,73,2.0,4.0,93,0.00,,,0.00,VWS V14.01,2013-09-11 07:07:00,
2013-09-11 03:12:00,73.2,71.1,29.90,ENE,74,1.0,4.0,93,0.00,,,0.00,VWS V14.01,2013-09-11 07:12:00,
2013-09-11 03:17:00,73.2,71.1,29.90,ENE,73,0.0,4.0,93,0.00,,,0.00,VWS V14.01,2013-09-11 07:17:00,
2013-09-11 03:22:00,73.3,71.2,29.90,ENE,74,0.0,4.0,93,0.00,,,0.00,VWS V14.01,2013-09-11 07:22:00,
2013-09-11 03:27:00,73.3,71.2,29.90,ENE,74,0.0,4.0,93,0.00,,,0.00,VWS V14.01,2013-09-11 07:27:00,
2013-09-11 03:30:00,73.3,71.2,29.90,ENE,72,0.0,4.0,93,0.00,,,0.00,VWS V14.01,2013-09-11 07:30:00,
2013-09-11 03:32:00,73.3,71.2,29.90,ENE,74,1.0,2.0,93,0.00,,,0.00,VWS V14.01,2013-09-11 07:32:00,
2013-09-11 03:37:00,73.3,71.2,29.90,ENE,73,0.0,4.0,93,0.00,,,0.00,VWS V14.01,2013-09-11 07:37:00,
2013-09-11 03:42:00,73.3,71.2,29.90,ENE,74,0.0,4.0,93,0.00,,,0.00,VWS V14.01,2013-09-11 07:42:00,
2013-09-11 03:47:00,73.5,71.0,29.90,ENE,74,1.0,4.0,92,0.00,,,0.00,VWS V14.01,2013-09-11 07:47:00,
2013-09-11 03:52:00,73.5,71.0,29.90,ENE,74,0.0,4.0,92,0.00,,,0.00,VWS V14.01,2013-09-11 07:52:00,
2013-09-11 03:57:00,73.5,71.0,29.90,ENE,72,1.0,4.0,92,0.00,,,0.00,VWS V14.01,2013-09-11 07:57:00,
2013-09-11 04:00:00,73.5,71.0,29.90,ENE,72,0.0,4.0,92,0.00,,,0.00,VWS V14.01,2013-09-11 08:00:00,
2013-09-11 04:02:00,73.5,71.0,29.90,ENE,72,0.0,0.0,92,0.00,,,0.00,VWS V14.01,2013-09-11 08:02:00,
2013-09-11 04:07:00,73.5,71.0,29.90,ENE,74,0.0,3.0,92,0.00,,,0.00,VWS V14.01,2013-09-11 08:07:00,
2013-09-11 04:12:00,73.5,71.0,29.90,ENE,74,0.0,3.0,92,0.00,,,0.00,VWS V14.01,2013-09-11 08:12:00,
2013-09-11 04:17:00,73.5,71.0,29.91,ENE,74,0.0,3.0,92,0.00,,,0.00,VWS V14.01,2013-09-11 08:17:00,
2013-09-11 04:22:00,73.5,71.0,29.91,ENE,72,0.0,3.0,92,0.00,,,0.00,VWS V14.01,2013-09-11 08:22:00,
2013-09-11 04:27:00,73.5,71.0,29.91,ENE,71,0.0,4.0,92,0.00,,,0.00,VWS V14.01,2013-09-11 08:27:00,
2013-09-11 04:30:00,73.5,70.7,29.90,ENE,71,4.0,5.0,91,0.00,,,0.00,VWS V14.01,2013-09-11 08:30:00,
2013-09-11 04:32:00,73.5,70.7,29.90,ENE,70,0.0,4.0,91,0.00,,,0.00,VWS V14.01,2013-09-11 08:32:00,
2013-09-11 04:37:00,73.5,70.7,29.90,ENE,71,0.0,4.0,91,0.00,,,0.00,VWS V14.01,2013-09-11 08:37:00,
2013-09-11 04:42:00,73.5,70.7,29.90,ENE,70,0.0,5.0,91,0.00,,,0.00,VWS V14.01,2013-09-11 08:42:00,
2013-09-11 04:47:00,73.7,70.9,29.90,ENE,69,2.0,5.0,91,0.00,,,0.00,VWS V14.01,2013-09-11 08:47:00,
2013-09-11 04:52:00,73.7,70.9,29.90,ENE,69,0.0,5.0,91,0.00,,,0.00,VWS V14.01,2013-09-11 08:52:00,
2013-09-11 04:57:00,73.7,70.9,29.90,North,360,2.0,5.0,91,0.00,,,0.00,VWS V14.01,2013-09-11 08:57:00,
2013-09-11 05:00:00,73.7,71.2,29.90,ENE,69,1.0,5.0,92,0.00,,,0.00,VWS V14.01,2013-09-11 09:00:00,
2013-09-11 05:02:00,73.9,71.4,29.90,ENE,67,2.0,3.0,92,0.00,,,0.00,VWS V14.01,2013-09-11 09:02:00,
2013-09-11 05:07:00,73.9,71.4,29.90,ENE,74,5.0,6.0,92,0.00,,,0.00,VWS V14.01,2013-09-11 09:07:00,
2013-09-11 05:12:00,74.0,71.5,29.90,ENE,65,4.0,6.0,92,0.00,,,0.00,VWS V14.01,2013-09-11 09:12:00,
2013-09-11 05:17:00,74.2,71.7,29.90,North,360,3.0,10.0,92,0.00,,,0.00,VWS V14.01,2013-09-11 09:17:00,
2013-09-11 05:22:00,74.2,71.7,29.90,ENE,72,4.0,10.0,92,0.00,,,0.00,VWS V14.01,2013-09-11 09:22:00,
2013-09-11 05:27:00,74.4,71.9,29.90,NE,45,5.0,10.0,92,0.00,,,0.00,VWS V14.01,2013-09-11 09:27:00,
2013-09-11 05:30:00,74.4,71.9,29.90,ENE,71,4.0,10.0,92,0.00,,,0.00,VWS V14.01,2013-09-11 09:30:00,
2013-09-11 05:32:00,74.4,71.9,29.90,ENE,74,4.0,7.0,92,0.00,,,0.00,VWS V14.01,2013-09-11 09:32:00,
2013-09-11 05:37:00,74.4,71.9,29.90,East,95,3.0,7.0,92,0.00,,,0.00,VWS V14.01,2013-09-11 09:37:00,
2013-09-11 05:42:00,74.4,71.9,29.90,ENE,59,1.0,7.0,92,0.00,,,0.00,VWS V14.01,2013-09-11 09:42:00,
2013-09-11 05:47:00,74.4,71.9,29.91,ENE,66,4.0,7.0,92,0.00,,,0.00,VWS V14.01,2013-09-11 09:47:00,
2013-09-11 05:52:00,74.4,72.2,29.91,ENE,74,1.0,7.0,93,0.00,,,0.00,VWS V14.01,2013-09-11 09:52:00,
2013-09-11 05:57:00,74.4,72.2,29.91,ENE,70,4.0,7.0,93,0.00,,,0.00,VWS V14.01,2013-09-11 09:57:00,
2013-09-11 06:00:00,74.4,72.2,29.91,NE,49,0.0,7.0,93,0.00,,,0.00,VWS V14.01,2013-09-11 10:00:00,
2013-09-11 06:02:00,74.4,72.2,29.91,North,360,6.0,6.0,93,0.00,,,0.00,VWS V14.01,2013-09-11 10:02:00,
2013-09-11 06:07:00,74.4,72.2,29.91,ENE,61,3.0,6.0,93,0.00,,,0.00,VWS V14.01,2013-09-11 10:07:00,
2013-09-11 06:12:00,74.4,72.2,29.91,ENE,78,4.0,7.0,93,0.00,,,0.00,VWS V14.01,2013-09-11 10:12:00,
2013-09-11 06:17:00,74.6,72.4,29.92,NE,55,4.0,7.0,93,0.00,,,0.00,VWS V14.01,2013-09-11 10:17:00,
2013-09-11 06:22:00,74.4,72.2,29.92,NE,51,2.0,7.0,93,0.00,,,0.00,VWS V14.01,2013-09-11 10:22:00,
2013-09-11 06:27:00,74.4,72.2,29.92,ENE,74,3.0,7.0,93,0.00,,,0.00,VWS V14.01,2013-09-11 10:27:00,
2013-09-11 06:30:00,74.4,72.2,29.92,NE,49,6.0,8.0,93,0.00,,,0.00,VWS V14.01,2013-09-11 10:30:00,
2013-09-11 06:32:00,74.4,72.2,29.92,NE,38,4.0,6.0,93,0.00,,,0.00,VWS V14.01,2013-09-11 10:32:00,
2013-09-11 06:37:00,74.6,72.4,29.92,ENE,66,2.0,6.0,93,0.00,,,0.00,VWS V14.01,2013-09-11 10:37:00,
2013-09-11 06:42:00,74.6,72.8,29.92,ENE,68,2.0,6.0,94,0.00,,,0.00,VWS V14.01,2013-09-11 10:42:00,
2013-09-11 06:47:00,74.6,72.8,29.92,ENE,63,2.0,6.0,94,0.00,,,0.00,VWS V14.01,2013-09-11 10:47:00,
2013-09-11 06:52:00,74.6,72.4,29.92,ENE,71,4.0,9.0,93,0.00,,,0.00,VWS V14.01,2013-09-11 10:52:00,
2013-09-11 06:57:00,74.4,72.2,29.92,ENE,58,3.0,9.0,93,0.00,,,0.00,VWS V14.01,2013-09-11 10:57:00,
2013-09-11 07:00:00,74.4,72.2,29.92,ENE,69,0.0,9.0,93,0.00,,,0.00,VWS V14.01,2013-09-11 11:00:00,
2013-09-11 07:02:00,74.4,72.2,29.92,ENE,69,1.0,1.0,93,0.00,,,0.00,VWS V14.01,2013-09-11 11:02:00,
2013-09-11 07:07:00,74.4,72.2,29.92,NE,54,0.0,4.0,93,0.00,,,0.00,VWS V14.01,2013-09-11 11:07:00,
2013-09-11 07:12:00,74.4,72.2,29.92,ENE,78,2.0,6.0,93,0.00,,,0.00,VWS V14.01,2013-09-11 11:12:00,
2013-09-11 07:17:00,74.2,72.1,29.93,East,86,1.0,6.0,93,0.00,,,0.00,VWS V14.01,2013-09-11 11:17:00,
2013-09-11 07:22:00,74.2,72.1,29.93,North,360,0.0,6.0,93,0.00,,,0.00,VWS V14.01,2013-09-11 11:22:00,
2013-09-11 07:27:00,74.2,72.1,29.93,North,360,0.0,6.0,93,0.00,,,0.00,VWS V14.01,2013-09-11 11:27:00,
2013-09-11 07:30:00,74.2,72.1,29.93,North,360,2.0,6.0,93,0.00,,,0.00,VWS V14.01,2013-09-11 11:30:00,
2013-09-11 07:32:00,74.2,72.1,29.93,North,360,0.0,2.0,93,0.00,,,0.00,VWS V14.01,2013-09-11 11:32:00,
2013-09-11 07:37:00,74.2,72.1,29.93,North,360,0.0,2.0,93,0.00,,,0.00,VWS V14.01,2013-09-11 11:37:00,
2013-09-11 07:42:00,74.4,72.2,29.93,North,360,0.0,4.0,93,0.00,,,0.00,VWS V14.01,2013-09-11 11:42:00,
2013-09-11 07:47:00,74.6,72.4,29.93,North,360,3.0,4.0,93,0.00,,,0.00,VWS V14.01,2013-09-11 11:47:00,
2013-09-11 07:52:00,74.7,72.6,29.93,North,360,2.0,5.0,93,0.00,,,0.00,VWS V14.01,2013-09-11 11:52:00,
2013-09-11 07:57:00,75.4,72.9,29.93,East,79,1.0,5.0,92,0.00,,,0.00,VWS V14.01,2013-09-11 11:57:00,
2013-09-11 08:00:00,75.8,73.3,29.94,ENE,69,5.0,5.0,92,0.00,,,0.00,VWS V14.01,2013-09-11 12:00:00,
2013-09-11 08:02:00,76.0,73.5,29.94,ENE,68,1.0,5.0,92,0.00,,,0.00,VWS V14.01,2013-09-11 12:02:00,
2013-09-11 08:07:00,76.7,73.6,29.94,East,97,4.0,7.0,90,0.00,,,0.00,VWS V14.01,2013-09-11 12:07:00,
2013-09-11 08:12:00,77.4,73.6,29.94,ENE,78,3.0,9.0,88,0.00,,,0.00,VWS V14.01,2013-09-11 12:12:00,
2013-09-11 08:17:00,77.9,73.7,29.94,ENE,74,6.0,9.0,87,0.00,,,0.00,VWS V14.01,2013-09-11 12:17:00,
2013-09-11 08:22:00,78.5,74.0,29.94,East,99,4.0,9.0,86,0.00,,,0.00,VWS V14.01,2013-09-11 12:22:00,
2013-09-11 08:27:00,79.0,73.8,29.94,ENE,67,3.0,10.0,84,0.00,,,0.00,VWS V14.01,2013-09-11 12:27:00,
2013-09-11 08:30:00,79.4,73.8,29.95,North,360,3.0,10.0,83,0.00,,,0.00,VWS V14.01,2013-09-11 12:30:00,
2013-09-11 08:32:00,79.6,74.3,29.95,ESE,105,4.0,5.0,84,0.00,,,0.00,VWS V14.01,2013-09-11 12:32:00,
2013-09-11 08:37:00,79.9,73.9,29.95,East,92,3.0,7.0,82,0.00,,,0.00,VWS V14.01,2013-09-11 12:37:00,
2013-09-11 08:42:00,80.3,73.9,29.95,ENE,67,6.0,8.0,81,0.00,,,0.00,VWS V14.01,2013-09-11 12:42:00,
2013-09-11 08:47:00,80.9,74.2,29.95,ENE,69,5.0,9.0,80,0.00,,,0.00,VWS V14.01,2013-09-11 12:47:00,
2013-09-11 08:52:00,81.2,74.1,29.95,ENE,69,6.0,11.0,79,0.00,,,0.00,VWS V14.01,2013-09-11 12:52:00,
2013-09-11 08:57:00,81.6,74.1,29.95,North,360,4.0,12.0,78,0.00,,,0.00,VWS V14.01,2013-09-11 12:57:00,
2013-09-11 09:00:00,81.8,74.3,29.95,North,360,5.0,12.0,78,0.00,,,0.00,VWS V14.01,2013-09-11 13:00:00,
2013-09-11 09:02:00,82.0,74.5,29.95,North,360,8.0,14.0,78,0.00,,,0.00,VWS V14.01,2013-09-11 13:02:00,
2013-09-11 09:07:00,82.0,74.1,29.95,ENE,69,7.0,14.0,77,0.00,,,0.00,VWS V14.01,2013-09-11 13:07:00,
2013-09-11 09:12:00,82.4,74.9,29.95,ESE,121,5.0,14.0,78,0.00,,,0.00,VWS V14.01,2013-09-11 13:12:00,
2013-09-11 09:17:00,82.6,74.7,29.96,East,88,5.0,14.0,77,0.00,,,0.00,VWS V14.01,2013-09-11 13:17:00,
2013-09-11 09:22:00,83.0,74.7,29.96,East,90,5.0,14.0,76,0.00,,,0.00,VWS V14.01,2013-09-11 13:22:00,
2013-09-11 09:27:00,83.6,74.8,29.96,ENE,63,2.0,14.0,75,0.00,,,0.00,VWS V14.01,2013-09-11 13:27:00,
2013-09-11 09:30:00,83.8,74.6,29.95,North,360,5.0,14.0,74,0.00,,,0.00,VWS V14.01,2013-09-11 13:30:00,
2013-09-11 09:32:00,84.0,74.8,29.95,ENE,69,6.0,15.0,74,0.00,,,0.00,VWS V14.01,2013-09-11 13:32:00,
2013-09-11 09:37:00,84.0,74.8,29.95,East,94,6.0,15.0,74,0.00,,,0.00,VWS V14.01,2013-09-11 13:37:00,
2013-09-11 09:42:00,84.1,75.3,29.95,NE,44,6.0,15.0,75,0.00,,,0.00,VWS V14.01,2013-09-11 13:42:00,
2013-09-11 09:47:00,84.1,74.5,29.95,ESE,104,6.0,15.0,73,0.00,,,0.00,VWS V14.01,2013-09-11 13:47:00,
2013-09-11 09:52:00,84.3,75.1,29.95,East,97,5.0,17.0,74,0.00,,,0.00,VWS V14.01,2013-09-11 13:52:00,
2013-09-11 09:57:00,84.3,74.7,29.95,ESE,116,7.0,17.0,73,0.00,,,0.00,VWS V14.01,2013-09-11 13:57:00,
2013-09-11 10:00:00,84.5,74.5,29.95,SE,128,5.0,17.0,72,0.00,,,0.00,VWS V14.01,2013-09-11 14:00:00,
2013-09-11 10:02:00,84.5,74.9,29.95,ESE,113,6.0,12.0,73,0.00,,,0.00,VWS V14.01,2013-09-11 14:02:00,
2013-09-11 10:07:00,84.5,74.1,29.95,North,360,8.0,14.0,71,0.00,,,0.00,VWS V14.01,2013-09-11 14:07:00,
2013-09-11 10:12:00,84.5,74.1,29.95,ENE,64,5.0,15.0,71,0.00,,,0.00,VWS V14.01,2013-09-11 14:12:00,
2013-09-11 10:17:00,85.1,75.9,29.95,North,360,13.0,15.0,74,0.00,,,0.00,VWS V14.01,2013-09-11 14:17:00,
2013-09-11 10:22:00,85.5,74.2,29.95,ENE,74,10.0,18.0,69,0.00,,,0.00,VWS V14.01,2013-09-11 14:22:00,
2013-09-11 10:27:00,86.1,73.9,29.95,SE,128,7.0,18.0,67,0.00,,,0.00,VWS V14.01,2013-09-11 14:27:00,
2013-09-11 10:30:00,86.3,74.1,29.95,East,99,3.0,18.0,67,0.00,,,0.00,VWS V14.01,2013-09-11 14:30:00,
2013-09-11 10:32:00,86.1,74.3,29.95,ENE,71,9.0,14.0,68,0.00,,,0.00,VWS V14.01,2013-09-11 14:32:00,
2013-09-11 10:37:00,86.1,74.3,29.95,East,92,12.0,16.0,68,0.00,,,0.00,VWS V14.01,2013-09-11 14:37:00,
2013-09-11 10:42:00,85.5,74.2,29.95,ESE,119,3.0,16.0,69,0.00,,,0.00,VWS V14.01,2013-09-11 14:42:00,
2013-09-11 10:47:00,85.3,74.4,29.95,ESE,106,11.0,16.0,70,0.00,,,0.00,VWS V14.01,2013-09-11 14:47:00,
2013-09-11 10:52:00,84.7,73.8,29.95,East,94,3.0,16.0,70,0.00,,,0.00,VWS V14.01,2013-09-11 14:52:00,
2013-09-11 10:57:00,85.1,74.2,29.95,ESE,112,10.0,16.0,70,0.00,,,0.00,VWS V14.01,2013-09-11 14:57:00,
2013-09-11 11:00:00,84.9,73.6,29.95,ESE,107,12.0,16.0,69,0.00,,,0.00,VWS V14.01,2013-09-11 15:00:00,
2013-09-11 11:02:00,84.9,73.6,29.95,ENE,57,7.0,14.0,69,0.00,,,0.00,VWS V14.01,2013-09-11 15:02:00,
2013-09-11 11:07:00,85.7,74.4,29.95,East,91,9.0,14.0,69,0.00,,,0.00,VWS V14.01,2013-09-11 15:07:00,
2013-09-11 11:12:00,86.5,74.2,29.95,North,360,6.0,16.0,67,0.00,,,0.00,VWS V14.01,2013-09-11 15:12:00,
2013-09-11 11:17:00,87.2,74.9,29.94,ENE,74,9.0,16.0,67,0.00,,,0.00,VWS V14.01,2013-09-11 15:17:00,
2013-09-11 11:22:00,86.7,74.0,29.94,SE,126,13.0,16.0,66,0.00,,,0.00,VWS V14.01,2013-09-11 15:22:00,
2013-09-11 11:27:00,86.5,73.8,29.94,ENE,70,11.0,16.0,66,0.00,,,0.00,VWS V14.01,2013-09-11 15:27:00,
2013-09-11 11:30:00,86.5,74.2,29.94,SE,127,8.0,17.0,67,0.00,,,0.00,VWS V14.01,2013-09-11 15:30:00,
2013-09-11 11:32:00,86.3,74.1,29.94,East,87,5.0,12.0,67,0.00,,,0.00,VWS V14.01,2013-09-11 15:32:00,
2013-09-11 11:37:00,85.7,73.9,29.94,North,360,10.0,12.0,68,0.00,,,0.00,VWS V14.01,2013-09-11 15:37:00,
2013-09-11 11:42:00,84.9,74.0,29.94,East,94,12.0,23.0,70,0.00,,,0.00,VWS V14.01,2013-09-11 15:42:00,
2013-09-11 11:47:00,82.0,72.1,29.96,SE,125,5.0,23.0,72,0.00,,,0.00,VWS V14.01,2013-09-11 15:47:00,
2013-09-11 11:52:00,79.9,71.7,29.96,SE,128,12.0,25.0,76,0.00,,,0.00,VWS V14.01,2013-09-11 15:52:00,
2013-09-11 11:57:00,78.6,71.2,29.96,SE,142,8.0,25.0,78,0.00,,,0.00,VWS V14.01,2013-09-11 15:57:00,
2013-09-11 12:00:00,77.9,70.9,29.96,SSE,153,9.0,25.0,79,0.00,,,0.00,VWS V14.01,2013-09-11 16:00:00,
2013-09-11 12:02:00,77.7,71.0,29.96,SE,140,6.0,12.0,80,0.00,,,0.00,VWS V14.01,2013-09-11 16:02:00,
2013-09-11 12:07:00,77.0,71.1,29.96,SSE,164,7.0,12.0,82,0.00,,,0.00,VWS V14.01,2013-09-11 16:07:00,
2013-09-11 12:12:00,76.7,71.2,29.96,ESE,118,2.0,12.0,83,0.00,,,0.00,VWS V14.01,2013-09-11 16:12:00,
2013-09-11 12:17:00,76.7,71.5,29.96,ESE,103,2.0,12.0,84,0.00,,,0.00,VWS V14.01,2013-09-11 16:17:00,
2013-09-11 12:22:00,76.8,71.6,29.96,ESE,123,0.0,12.0,84,0.00,,,0.00,VWS V14.01,2013-09-11 16:22:00,
2013-09-11 12:27:00,76.8,71.9,29.96,SE,124,2.0,12.0,85,0.00,,,0.00,VWS V14.01,2013-09-11 16:27:00,
2013-09-11 12:30:00,77.0,72.5,29.96,ESE,111,5.0,12.0,86,0.00,,,0.00,VWS V14.01,2013-09-11 16:30:00,
2013-09-11 12:32:00,77.0,72.5,29.96,ESE,107,5.0,7.0,86,0.00,,,0.00,VWS V14.01,2013-09-11 16:32:00,
2013-09-11 12:37:00,77.2,72.3,29.96,SE,128,1.0,9.0,85,0.00,,,0.00,VWS V14.01,2013-09-11 16:37:00,
2013-09-11 12:42:00,77.4,72.5,29.96,East,97,6.0,9.0,85,0.00,,,0.00,VWS V14.01,2013-09-11 16:42:00,
2013-09-11 12:47:00,77.6,73.1,29.96,ESE,113,5.0,9.0,86,0.00,,,0.00,VWS V14.01,2013-09-11 16:47:00,
2013-09-11 12:52:00,77.6,73.1,29.96,SE,130,4.0,9.0,86,0.00,,,0.00,VWS V14.01,2013-09-11 16:52:00,
2013-09-11 12:57:00,77.4,72.9,29.96,ESE,105,9.0,11.0,86,0.00,,,0.00,VWS V14.01,2013-09-11 16:57:00,
2013-09-11 13:00:00,77.4,72.9,29.96,East,94,3.0,11.0,86,0.00,,,0.00,VWS V14.01,2013-09-11 17:00:00,
2013-09-11 13:02:00,77.4,73.2,29.96,SE,127,1.0,4.0,87,0.00,,,0.00,VWS V14.01,2013-09-11 17:02:00,
2013-09-11 13:07:00,77.6,73.1,29.96,SE,124,7.0,10.0,86,0.00,,,0.00,VWS V14.01,2013-09-11 17:07:00,
2013-09-11 13:12:00,77.6,73.1,29.96,North,360,5.0,11.0,86,0.00,,,0.00,VWS V14.01,2013-09-11 17:12:00,
2013-09-11 13:17:00,77.7,73.2,29.96,ESE,113,12.0,15.0,86,0.00,,,0.00,VWS V14.01,2013-09-11 17:17:00,
2013-09-11 13:22:00,77.9,73.7,29.96,ESE,120,0.0,15.0,87,0.00,,,0.00,VWS V14.01,2013-09-11 17:22:00,
2013-09-11 13:27:00,77.9,74.1,29.96,East,96,0.0,15.0,88,0.00,,,0.00,VWS V14.01,2013-09-11 17:27:00,
2013-09-11 13:30:00,77.9,74.1,29.96,East,101,0.0,15.0,88,0.00,,,0.00,VWS V14.01,2013-09-11 17:30:00,
2013-09-11 13:32:00,77.9,74.1,29.96,East,97,3.0,3.0,88,0.00,,,0.00,VWS V14.01,2013-09-11 17:32:00,
2013-09-11 13:37:00,78.1,74.6,29.96,East,93,3.0,9.0,89,0.00,,,0.00,VWS V14.01,2013-09-11 17:37:00,
2013-09-11 13:42:00,78.1,72.9,29.96,ENE,75,7.0,13.0,84,0.00,,,0.00,VWS V14.01,2013-09-11 17:42:00,
2013-09-11 13:47:00,78.5,73.3,29.95,ESE,111,5.0,13.0,84,0.00,,,0.00,VWS V14.01,2013-09-11 17:47:00,
2013-09-11 13:52:00,78.8,72.8,29.95,ESE,123,4.0,13.0,82,0.00,,,0.00,VWS V14.01,2013-09-11 17:52:00,
2013-09-11 13:57:00,79.8,74.2,29.95,East,101,6.0,13.0,83,0.00,,,0.00,VWS V14.01,2013-09-11 17:57:00,
2013-09-11 14:00:00,80.1,73.8,29.93,ESE,107,6.0,13.0,81,0.00,,,0.00,VWS V14.01,2013-09-11 18:00:00,
2013-09-11 14:02:00,80.5,73.8,29.93,North,360,9.0,10.0,80,0.00,,,0.00,VWS V14.01,2013-09-11 18:02:00,
2013-09-11 14:07:00,81.6,72.9,29.93,ESE,109,7.0,13.0,75,0.00,,,0.00,VWS V14.01,2013-09-11 18:07:00,
2013-09-11 14:12:00,82.4,73.3,29.93,North,360,4.0,13.0,74,0.00,,,0.00,VWS V14.01,2013-09-11 18:12:00,
2013-09-11 14:17:00,83.2,73.2,29.92,ESE,106,5.0,13.0,72,0.00,,,0.00,VWS V14.01,2013-09-11 18:17:00,
2013-09-11 14:22:00,84.0,73.2,29.92,North,360,6.0,13.0,70,0.00,,,0.00,VWS V14.01,2013-09-11 18:22:00,
2013-09-11 14:27:00,84.7,73.0,29.92,East,95,6.0,13.0,68,0.00,,,0.00,VWS V14.01,2013-09-11 18:27:00,
2013-09-11 14:30:00,85.3,72.2,29.92,East,87,11.0,16.0,65,0.00,,,0.00,VWS V14.01,2013-09-11 18:30:00,
2013-09-11 14:32:00,85.5,72.4,29.92,East,82,13.0,13.0,65,0.00,,,0.00,VWS V14.01,2013-09-11 18:32:00,
2013-09-11 14:37:00,86.3,72.2,29.92,ENE,69,7.0,15.0,63,0.00,,,0.00,VWS V14.01,2013-09-11 18:37:00,
2013-09-11 14:42:00,87.2,73.1,29.92,ENE,61,11.0,15.0,63,0.00,,,0.00,VWS V14.01,2013-09-11 18:42:00,
2013-09-11 14:47:00,86.1,72.5,29.91,ESE,116,10.0,15.0,64,0.00,,,0.00,VWS V14.01,2013-09-11 18:47:00,
2013-09-11 14:52:00,85.9,72.8,29.91,North,360,7.0,15.0,65,0.00,,,0.00,VWS V14.01,2013-09-11 18:52:00,
2013-09-11 14:57:00,85.9,72.8,29.91,East,95,9.0,17.0,65,0.00,,,0.00,VWS V14.01,2013-09-11 18:57:00,
2013-09-11 15:00:00,85.7,73.0,29.91,ESE,110,11.0,17.0,66,0.00,,,0.00,VWS V14.01,2013-09-11 19:00:00,
2013-09-11 15:02:00,85.9,72.3,29.91,East,79,14.0,14.0,64,0.00,,,0.00,VWS V14.01,2013-09-11 19:02:00,
2013-09-11 15:07:00,86.7,73.1,29.91,North,360,14.0,14.0,64,0.00,,,0.00,VWS V14.01,2013-09-11 19:07:00,
2013-09-11 15:12:00,87.4,73.3,29.91,East,101,5.0,14.0,63,0.00,,,0.00,VWS V14.01,2013-09-11 19:12:00,
2013-09-11 15:17:00,87.6,72.5,29.90,ENE,62,11.0,16.0,61,0.00,,,0.00,VWS V14.01,2013-09-11 19:17:00,
2013-09-11 15:22:00,88.0,72.9,29.90,East,82,7.0,16.0,61,0.00,,,0.00,VWS V14.01,2013-09-11 19:22:00,
2013-09-11 15:27:00,87.8,72.7,29.90,ESE,117,3.0,16.0,61,0.00,,,0.00,VWS V14.01,2013-09-11 19:27:00,
2013-09-11 15:30:00,87.4,72.8,29.89,ESE,119,8.0,16.0,62,0.00,,,0.00,VWS V14.01,2013-09-11 19:30:00,
2013-09-11 15:32:00,87.4,73.3,29.89,ESE,121,8.0,12.0,63,0.00,,,0.00,VWS V14.01,2013-09-11 19:32:00,
2013-09-11 15:37:00,87.4,73.3,29.89,North,360,11.0,13.0,63,0.00,,,0.00,VWS V14.01,2013-09-11 19:37:00,
2013-09-11 15:42:00,87.8,73.6,29.89,ESE,121,9.0,16.0,63,0.00,,,0.00,VWS V14.01,2013-09-11 19:42:00,
2013-09-11 15:47:00,88.0,72.4,29.89,ESE,109,7.0,16.0,60,0.00,,,0.00,VWS V14.01,2013-09-11 19:47:00,
2013-09-11 15:52:00,87.8,72.7,29.89,North,360,9.0,16.0,61,0.00,,,0.00,VWS V14.01,2013-09-11 19:52:00,
2013-09-11 15:57:00,88.4,74.2,29.89,East,88,6.0,16.0,63,0.00,,,0.00,VWS V14.01,2013-09-11 19:57:00,
2013-09-11 16:00:00,88.2,72.6,29.89,ESE,121,5.0,16.0,60,0.00,,,0.00,VWS V14.01,2013-09-11 20:00:00,
2013-09-11 16:02:00,88.0,72.9,29.89,SE,128,2.0,7.0,61,0.00,,,0.00,VWS V14.01,2013-09-11 20:02:00,
2013-09-11 16:07:00,88.2,72.6,29.89,North,360,10.0,14.0,60,0.00,,,0.00,VWS V14.01,2013-09-11 20:07:00,
2013-09-11 16:12:00,88.8,72.6,29.89,ENE,62,10.0,14.0,59,0.00,,,0.00,VWS V14.01,2013-09-11 20:12:00,
2013-09-11 16:17:00,89.0,72.3,29.88,SE,139,5.0,14.0,58,0.00,,,0.00,VWS V14.01,2013-09-11 20:17:00,
2013-09-11 16:22:00,88.0,73.4,29.88,East,100,3.0,14.0,62,0.00,,,0.00,VWS V14.01,2013-09-11 20:22:00,
2013-09-11 16:27:00,88.2,72.6,29.88,ESE,119,6.0,14.0,60,0.00,,,0.00,VWS V14.01,2013-09-11 20:27:00,
2013-09-11 16:30:00,88.0,73.4,29.88,North,360,4.0,14.0,62,0.00,,,0.00,VWS V14.01,2013-09-11 20:30:00,
2013-09-11 16:32:00,88.2,73.1,29.88,East,80,1.0,9.0,61,0.00,,,0.00,VWS V14.01,2013-09-11 20:32:00,
2013-09-11 16:37:00,88.6,72.4,29.88,East,92,6.0,14.0,59,0.00,,,0.00,VWS V14.01,2013-09-11 20:37:00,
2013-09-11 16:42:00,88.6,71.4,29.88,ESE,121,5.0,14.0,57,0.00,,,0.00,VWS V14.01,2013-09-11 20:42:00,
2013-09-11 16:47:00,88.4,72.3,29.88,ENE,76,2.0,14.0,59,0.00,,,0.00,VWS V14.01,2013-09-11 20:47:00,
2013-09-11 16:52:00,88.0,72.4,29.88,East,80,4.0,14.0,60,0.00,,,0.00,VWS V14.01,2013-09-11 20:52:00,
2013-09-11 16:57:00,88.4,72.3,29.88,ESE,112,5.0,14.0,59,0.00,,,0.00,VWS V14.01,2013-09-11 20:57:00,
2013-09-11 17:00:00,88.6,71.4,29.88,North,360,10.0,14.0,57,0.00,,,0.00,VWS V14.01,2013-09-11 21:00:00,
2013-09-11 17:02:00,88.8,72.6,29.88,North,360,3.0,10.0,59,0.00,,,0.00,VWS V14.01,2013-09-11 21:02:00,
2013-09-11 17:07:00,88.8,73.1,29.88,North,360,4.0,10.0,60,0.00,,,0.00,VWS V14.01,2013-09-11 21:07:00,
2013-09-11 17:12:00,88.6,72.4,29.88,North,360,4.0,10.0,59,0.00,,,0.00,VWS V14.01,2013-09-11 21:12:00,
2013-09-11 17:17:00,88.4,71.8,29.88,East,90,7.0,12.0,58,0.00,,,0.00,VWS V14.01,2013-09-11 21:17:00,
2013-09-11 17:22:00,88.4,71.8,29.88,East,92,5.0,12.0,58,0.00,,,0.00,VWS V14.01,2013-09-11 21:22:00,
2013-09-11 17:27:00,88.4,72.3,29.88,East,91,4.0,12.0,59,0.00,,,0.00,VWS V14.01,2013-09-11 21:27:00,
2013-09-11 17:30:00,88.2,72.1,29.88,ESE,102,2.0,12.0,59,0.00,,,0.00,VWS V14.01,2013-09-11 21:30:00,
2013-09-11 17:32:00,88.2,72.6,29.88,East,88,3.0,4.0,60,0.00,,,0.00,VWS V14.01,2013-09-11 21:32:00,
2013-09-11 17:37:00,87.8,71.7,29.88,ENE,67,4.0,11.0,59,0.00,,,0.00,VWS V14.01,2013-09-11 21:37:00,
2013-09-11 17:42:00,87.6,72.5,29.88,ENE,74,1.0,11.0,61,0.00,,,0.00,VWS V14.01,2013-09-11 21:42:00,
2013-09-11 17:47:00,87.6,72.5,29.87,ESE,113,3.0,11.0,61,0.00,,,0.00,VWS V14.01,2013-09-11 21:47:00,
2013-09-11 17:52:00,87.6,73.0,29.87,ENE,78,7.0,11.0,62,0.00,,,0.00,VWS V14.01,2013-09-11 21:52:00,
2013-09-11 17:57:00,87.2,72.1,29.87,East,91,4.0,12.0,61,0.00,,,0.00,VWS V14.01,2013-09-11 21:57:00,
2013-09-11 18:00:00,87.0,72.9,29.88,ENE,63,11.0,12.0,63,0.00,,,0.00,VWS V14.01,2013-09-11 22:00:00,
2013-09-11 18:02:00,87.0,72.9,29.88,ESE,122,10.0,12.0,63,0.00,,,0.00,VWS V14.01,2013-09-11 22:02:00,
2013-09-11 18:07:00,87.0,73.8,29.88,East,96,4.0,12.0,65,0.00,,,0.00,VWS V14.01,2013-09-11 22:07:00,
2013-09-11 18:12:00,87.0,73.4,29.88,ENE,70,5.0,13.0,64,0.00,,,0.00,VWS V14.01,2013-09-11 22:12:00,
2013-09-11 18:17:00,86.7,73.1,29.88,North,360,9.0,13.0,64,0.00,,,0.00,VWS V14.01,2013-09-11 22:17:00,
2013-09-11 18:22:00,86.3,72.7,29.88,North,360,6.0,13.0,64,0.00,,,0.00,VWS V14.01,2013-09-11 22:22:00,
2013-09-11 18:27:00,86.3,72.7,29.88,ESE,121,7.0,13.0,64,0.00,,,0.00,VWS V14.01,2013-09-11 22:27:00,
2013-09-11 18:30:00,86.1,72.0,29.88,East,92,5.0,13.0,63,0.00,,,0.00,VWS V14.01,2013-09-11 22:30:00,
2013-09-11 18:32:00,86.1,72.5,29.88,East,92,3.0,5.0,64,0.00,,,0.00,VWS V14.01,2013-09-11 22:32:00,
2013-09-11 18:37:00,86.1,72.5,29.88,East,94,7.0,11.0,64,0.00,,,0.00,VWS V14.01,2013-09-11 22:37:00,
2013-09-11 18:42:00,83.2,72.0,29.88,South,180,10.0,23.0,69,0.00,,,0.00,VWS V14.01,2013-09-11 22:42:00,
2013-09-11 18:47:00,79.8,68.7,29.89,ESE,117,12.0,23.0,69,0.00,,,0.00,VWS V14.01,2013-09-11 22:47:00,
2013-09-11 18:52:00,76.8,69.4,29.89,South,169,3.0,23.0,78,0.01,,,0.01,VWS V14.01,2013-09-11 22:52:00,
2013-09-11 18:57:00,75.8,69.2,29.89,SSE,165,5.0,23.0,80,0.01,,,0.01,VWS V14.01,2013-09-11 22:57:00,
2013-09-11 19:00:00,75.4,69.9,29.90,SSW,194,3.0,23.0,83,0.03,,,0.03,VWS V14.01,2013-09-11 23:00:00,
2013-09-11 19:02:00,75.3,70.1,29.90,SSW,202,0.0,5.0,84,0.03,,,0.03,VWS V14.01,2013-09-11 23:02:00,
2013-09-11 19:07:00,74.9,71.1,29.90,SSW,204,1.0,5.0,88,0.05,,,0.05,VWS V14.01,2013-09-11 23:07:00,
2013-09-11 19:12:00,74.4,71.3,29.90,SSW,201,0.0,5.0,90,0.06,,,0.06,VWS V14.01,2013-09-11 23:12:00,
2013-09-11 19:17:00,74.2,71.4,29.89,SSW,203,0.0,5.0,91,0.06,,,0.06,VWS V14.01,2013-09-11 23:17:00,
2013-09-11 19:22:00,74.2,71.7,29.89,SSW,203,0.0,5.0,92,0.07,,,0.07,VWS V14.01,2013-09-11 23:22:00,
2013-09-11 19:27:00,74.2,72.1,29.89,SSW,202,0.0,5.0,93,0.07,,,0.07,VWS V14.01,2013-09-11 23:27:00,
2013-09-11 19:30:00,74.2,72.4,29.89,SSW,200,0.0,5.0,94,0.07,,,0.07,VWS V14.01,2013-09-11 23:30:00,
2013-09-11 19:32:00,74.4,72.6,29.89,SSW,202,0.0,0.0,94,0.07,,,0.07,VWS V14.01,2013-09-11 23:32:00,
2013-09-11 19:37:00,74.7,73.2,29.89,SE,144,0.0,3.0,95,0.07,,,0.07,VWS V14.01,2013-09-11 23:37:00,
2013-09-11 19:42:00,74.9,73.4,29.89,SE,144,0.0,3.0,95,0.07,,,0.07,VWS V14.01,2013-09-11 23:42:00,
2013-09-11 19:47:00,74.9,73.4,29.89,SE,142,0.0,3.0,95,0.07,,,0.07,VWS V14.01,2013-09-11 23:47:00,
2013-09-11 19:52:00,75.1,73.9,29.89,SE,144,0.0,3.0,96,0.07,,,0.07,VWS V14.01,2013-09-11 23:52:00,
2013-09-11 19:57:00,75.3,74.1,29.89,SE,143,0.0,3.0,96,0.07,,,0.07,VWS V14.01,2013-09-11 23:57:00,
2013-09-11 20:00:00,75.4,74.2,29.89,SE,144,0.0,3.0,96,0.07,,,0.07,VWS V14.01,2013-09-12 00:00:00,
2013-09-11 20:02:00,75.4,74.2,29.89,SE,144,0.0,0.0,96,0.04,,,0.07,VWS V14.01,2013-09-12 00:02:00,
2013-09-11 20:07:00,75.6,74.4,29.89,SE,142,0.0,2.0,96,0.04,,,0.07,VWS V14.01,2013-09-12 00:07:00,
2013-09-11 20:12:00,75.8,74.6,29.89,SE,144,0.0,2.0,96,0.04,,,0.07,VWS V14.01,2013-09-12 00:12:00,
2013-09-11 20:17:00,76.0,74.8,29.90,SE,144,0.0,2.0,96,0.04,,,0.07,VWS V14.01,2013-09-12 00:17:00,
2013-09-11 20:22:00,76.0,74.8,29.90,SE,138,0.0,3.0,96,0.04,,,0.07,VWS V14.01,2013-09-12 00:22:00,
2013-09-11 20:27:00,76.0,74.8,29.90,SE,138,0.0,3.0,96,0.04,,,0.07,VWS V14.01,2013-09-12 00:27:00,
2013-09-11 20:30:00,76.1,74.9,29.91,SE,137,0.0,3.0,96,0.04,,,0.07,VWS V14.01,2013-09-12 00:30:00,
2013-09-11 20:32:00,76.1,74.9,29.91,SE,138,0.0,0.0,96,0.00,,,0.07,VWS V14.01,2013-09-12 00:32:00,
2013-09-11 20:37:00,76.1,74.9,29.91,SE,139,0.0,1.0,96,0.00,,,0.07,VWS V14.01,2013-09-12 00:37:00,
2013-09-11 20:42:00,76.3,75.1,29.91,SE,138,0.0,1.0,96,0.00,,,0.07,VWS V14.01,2013-09-12 00:42:00,
2013-09-11 20:47:00,76.5,75.3,29.91,SE,138,1.0,2.0,96,0.00,,,0.07,VWS V14.01,2013-09-12 00:47:00,
2013-09-11 20:52:00,76.5,75.3,29.91,ESE,115,3.0,4.0,96,0.00,,,0.07,VWS V14.01,2013-09-12 00:52:00,
2013-09-11 20:57:00,76.7,75.5,29.91,ESE,114,0.0,4.0,96,0.00,,,0.07,VWS V14.01,2013-09-12 00:57:00,
2013-09-11 21:00:00,76.7,75.5,29.91,ESE,109,2.0,4.0,96,0.00,,,0.07,VWS V14.01,2013-09-12 01:00:00,
2013-09-11 21:02:00,76.7,75.5,29.91,ESE,111,1.0,2.0,96,0.00,,,0.07,VWS V14.01,2013-09-12 01:02:00,
2013-09-11 21:07:00,76.8,75.6,29.91,ESE,116,0.0,5.0,96,0.00,,,0.07,VWS V14.01,2013-09-12 01:07:00,
2013-09-11 21:12:00,77.0,75.5,29.91,ESE,107,0.0,6.0,95,0.00,,,0.07,VWS V14.01,2013-09-12 01:12:00,
2013-09-11 21:17:00,77.0,75.1,29.91,ESE,113,3.0,6.0,94,0.00,,,0.07,VWS V14.01,2013-09-12 01:17:00,
2013-09-11 21:22:00,77.0,74.8,29.91,ESE,114,3.0,7.0,93,0.00,,,0.07,VWS V14.01,2013-09-12 01:22:00,
2013-09-11 21:27:00,77.0,74.5,29.91,East,95,3.0,7.0,92,0.00,,,0.07,VWS V14.01,2013-09-12 01:27:00,
2013-09-11 21:30:00,77.0,74.5,29.91,East,97,2.0,7.0,92,0.00,,,0.07,VWS V14.01,2013-09-12 01:30:00,
2013-09-11 21:32:00,77.0,74.5,29.91,ESE,116,0.0,5.0,92,0.00,,,0.07,VWS V14.01,2013-09-12 01:32:00,
2013-09-11 21:37:00,77.0,74.5,29.91,ESE,105,2.0,6.0,92,0.00,,,0.07,VWS V14.01,2013-09-12 01:37:00,
2013-09-11 21:42:00,77.0,74.2,29.91,ESE,117,4.0,6.0,91,0.00,,,0.07,VWS V14.01,2013-09-12 01:42:00,
2013-09-11 21:47:00,77.0,74.2,29.92,ESE,102,2.0,7.0,91,0.00,,,0.07,VWS V14.01,2013-09-12 01:47:00,
2013-09-11 21:52:00,76.8,74.0,29.92,SE,129,2.0,9.0,91,0.00,,,0.07,VWS V14.01,2013-09-12 01:52:00,
2013-09-11 21:57:00,77.0,74.2,29.92,SE,125,3.0,9.0,91,0.00,,,0.07,VWS V14.01,2013-09-12 01:57:00,
2013-09-11 22:00:00,76.8,74.0,29.92,ESE,107,5.0,9.0,91,0.00,,,0.07,VWS V14.01,2013-09-12 02:00:00,
2013-09-11 22:02:00,76.8,73.7,29.92,ESE,120,4.0,6.0,90,0.00,,,0.07,VWS V14.01,2013-09-12 02:02:00,
2013-09-11 22:07:00,76.8,73.7,29.92,ESE,115,1.0,6.0,90,0.00,,,0.07,VWS V14.01,2013-09-12 02:07:00,
2013-09-11 22:12:00,76.8,73.7,29.92,SE,140,3.0,6.0,90,0.00,,,0.07,VWS V14.01,2013-09-12 02:12:00,
2013-09-11 22:17:00,76.7,73.2,29.92,SE,124,3.0,7.0,89,0.00,,,0.07,VWS V14.01,2013-09-12 02:17:00,
2013-09-11 22:22:00,76.5,73.0,29.92,ESE,123,3.0,9.0,89,0.00,,,0.07,VWS V14.01,2013-09-12 02:22:00,
2013-09-11 22:27:00,76.5,72.7,29.92,SE,126,3.0,9.0,88,0.00,,,0.07,VWS V14.01,2013-09-12 02:27:00,
2013-09-11 22:30:00,76.3,72.5,29.92,SE,130,4.0,9.0,88,0.00,,,0.07,VWS V14.01,2013-09-12 02:30:00,
2013-09-11 22:32:00,76.3,72.5,29.92,SE,126,2.0,4.0,88,0.00,,,0.07,VWS V14.01,2013-09-12 02:32:00,
2013-09-11 22:37:00,76.1,72.3,29.92,SE,134,0.0,6.0,88,0.00,,,0.07,VWS V14.01,2013-09-12 02:37:00,
2013-09-11 22:41:00,76.0,72.2,29.92,SE,129,0.0,6.0,88,0.00,,,0.07,VWS V14.01,2013-09-12 02:41:00,
2013-09-11 22:46:00,75.8,72.3,29.92,SE,130,0.0,6.0,89,0.00,,,0.07,VWS V14.01,2013-09-12 02:46:00,
2013-09-11 22:51:00,75.6,72.1,29.92,SE,130,0.0,6.0,89,0.00,,,0.07,VWS V14.01,2013-09-12 02:51:00,
2013-09-11 22:56:00,75.4,72.3,29.92,SE,130,0.0,6.0,90,0.00,,,0.07,VWS V14.01,2013-09-12 02:56:00,
2013-09-11 23:00:00,75.3,72.2,29.92,SE,130,0.0,6.0,90,0.00,,,0.07,VWS V14.01,2013-09-12 03:00:00,
2013-09-11 23:01:00,75.1,72.3,29.92,SE,130,0.0,0.0,91,0.00,,,0.07,VWS V14.01,2013-09-12 03:01:00,
2013-09-11 23:06:00,75.1,72.3,29.92,SE,131,0.0,0.0,91,0.00,,,0.07,VWS V14.01,2013-09-12 03:06:00,
2013-09-11 23:11:00,74.9,72.1,29.92,SE,131,0.0,0.0,91,0.00,,,0.07,VWS V14.01,2013-09-12 03:11:00,
2013-09-11 23:16:00,74.7,71.9,29.92,SE,129,0.0,0.0,91,0.00,,,0.07,VWS V14.01,2013-09-12 03:16:00,
2013-09-11 23:21:00,74.6,72.1,29.92,SE,129,0.0,0.0,92,0.00,,,0.07,VWS V14.01,2013-09-12 03:21:00,
2013-09-11 23:26:00,74.4,71.9,29.92,SE,131,0.0,0.0,92,0.00,,,0.07,VWS V14.01,2013-09-12 03:26:00,
2013-09-11 23:30:00,74.2,71.7,29.92,SE,129,0.0,0.0,92,0.00,,,0.07,VWS V14.01,2013-09-12 03:30:00,
2013-09-11 23:31:00,74.2,71.7,29.92,SE,130,0.0,0.0,92,0.00,,,0.07,VWS V14.01,2013-09-12 03:31:00,
2013-09-11 23:36:00,74.0,71.5,29.92,SE,131,0.0,0.0,92,0.00,,,0.07,VWS V14.01,2013-09-12 03:36:00,
2013-09-11 23:41:00,74.0,71.5,29.92,SE,128,0.0,0.0,92,0.00,,,0.07,VWS V14.01,2013-09-12 03:41:00,
2013-09-11 23:46:00,73.9,71.8,29.92,SE,131,0.0,0.0,93,0.00,,,0.07,VWS V14.01,2013-09-12 03:46:00,
2013-09-11 23:51:00,73.7,71.6,29.92,SE,129,0.0,1.0,93,0.00,,,0.07,VWS V14.01,2013-09-12 03:51:00,
2013-09-11 23:56:00,73.7,71.6,29.92,SE,126,0.0,3.0,93,0.00,,,0.07,VWS V14.01,2013-09-12 03:56:00,